Regional Weather Roundup
Issued by NWS

Home | Current Version | Previous Version | Graphics & Text | Print | Product List | Glossary On
Versions: 1 2 3 4 5 6 7 8 9 10 11 12 13 14 15 16 17 18 19 20 21 22 23 24 25 26 27 28 29 30 31 32 33 34 35 36 37 38 39 40 41 42 43 44 45 46 47 48 49 50
000
ASUS45 KBOU 251907
RWRCO

WEATHER ROUNDUP FOR COLORADO
NATIONAL WEATHER SERVICE DENVER/BOULDER CO
100 PM MDT FRI JUL 25 2014

NOTE: "FAIR" INDICATES FEW OR NO CLOUDS BELOW 12000 FEET WITH NO
SIGNIFICANT WEATHER AND/OR OBSTRUCTIONS TO VISIBILITY.

COZ001>005-013-030-031-252000-
...NORTHWEST COLORADO...

CITY           SKY/WX    TMP DP  RH WIND       PRES   REMARKS
CRAIG          MOSUNNY   80  48  32 SW16G24   30.17F
HAYDEN         MOSUNNY   84  43  23 SW15      30.21F
MEEKER         MOSUNNY   85  47  26 MISG      30.19F
MOUNT WERNER   NOT AVBL
STEAMBOAT SPGS MOSUNNY   82  50  32 W8        30.24S
WALDEN         PTSUNNY   77  43  29 SW14G24   30.33S
$$

COZ006>008-011-252000-
...WEST CENTRAL VALLEYS...

CITY           SKY/WX    TMP DP  RH WIND       PRES   REMARKS
GRAND JUNCTION TSTM      78  60  53 SW10      30.12S
MONTROSE       PTSUNNY   86  49  27 CALM      30.22F
EAGLE          MOSUNNY   81  52  36 NE3       30.25F
RIFLE          PTSUNNY   87  47  24 VRB7      30.15F
DELTA          PTSUNNY   88  47  24 E3        30.18F
NUCLA          CLOUDY    81  46  30 SE3       30.29S
$$

COZ017>023-064>068-252000-
...SOUTHWEST COLORADO...

CITY           SKY/WX    TMP DP  RH WIND       PRES   REMARKS
DURANGO        MOSUNNY   87  43  21 W15       30.27F
CORTEZ         MOSUNNY   87  46  24 W9G18     30.23F
PAGOSA SPRINGS MOSUNNY   82  38  20 SW14G20   30.36S
TELLURIDE      CLOUDY    70  48  46 CALM      30.49F THUNDER
WOLF CREEK PAS NOT AVBL
$$

COZ009-010-012-014-032>034-037-058>063-252000-
...CENTRAL COLORADO...

CITY           SKY/WX    TMP DP  RH WIND       PRES   REMARKS
ASPEN          PTSUNNY   74  51  44 N7        30.35F
BUENA VISTA    PTSUNNY   80  42  25 SE15      30.32F
COPPER MTN     PTSUNNY   63  37  39 W29G38    30.68F
BERTHOUD PASS  CLOUDY    54  39  58 W14       30.74S
COTTONWOOD PAS MOSUNNY   73  34  23 W14G21    30.49S
GUNNISON       PTSUNNY   73  45  35 N14       30.38S
KREMMLING      MOSUNNY   86  41  20 W13       30.29F
LEADVILLE      CLOUDY    62  42  47 SE13G23   30.51R
MONARCH PASS   MOSUNNY   63  41  45 SW24G32   30.79F
SALIDA         NOT AVBL
SUNLIGHT       PTSUNNY   66  50  55 CALM      30.62S
WILKERSON PASS MOSUNNY   73  36  25 SW5       30.64F
$$

COZ069>075-252000-
...SAN LUIS VALLEY/SANGRE DE CRISTO MOUNTAINS...

CITY           SKY/WX    TMP DP  RH WIND       PRES   REMARKS
ALAMOSA        SUNNY     82  44  26 VRB5      30.32F
LA VETA PASS   NOT AVBL
SAGUACHE       MOSUNNY   81  45  28 NW10      30.34F
$$

COZ035-036-038>040-252000-
...NORTHERN COLORADO FRONT RANGE...

CITY           SKY/WX    TMP DP  RH WIND       PRES   REMARKS
DENVER INTL AP PTSUNNY   91  43  18 SE10      30.09F
DMNS CITY PARK   N/A     91  41  17 W2        30.07F
AURORA         PTSUNNY   88  46  23 SE12      30.12F
FRONT RANGE AP NOT AVBL
ERIE MUNI ARPT PTSUNNY   95  40  14 SE8       30.06S
BOULDER MUN AP PTSUNNY   91  48  22 S9        30.06F
CENTENNIAL     PTSUNNY   89  42  19 SE8       30.13F
BROOMFIELD     PTSUNNY   88  48  25 S9        30.12F
FORT COLLINS   MOSUNNY   93  54  26 SE7       30.04F
LONGMONT       MOSUNNY   96  49  20 E9        30.06F
$$

COZ041-046-047-076>085-087-088-252000-
...PIKES PEAK/PALMER DIVIDE AND SOUTHERN FOOTHILLS...

CITY           SKY/WX    TMP DP  RH WIND       PRES   REMARKS
COLO. SPRINGS  PTSUNNY   89  43  20 E10       30.18F
A. F. ACADEMY  MOSUNNY   84  47  27 SW9       30.20F
ELLICOTT       PTSUNNY   91  42  18 E12G18    30.16F
FALCON         PTSUNNY   84  44  24 SE5       30.25F
FORT CARSON    PTSUNNY   89  47  23 E8        30.15F
LIMON          MOSUNNY   92  38  15 NE12G18   30.11S
MONUMENT HILL  MOSUNNY   82  43  24 E8        30.25S
TRINIDAD       MOSUNNY   95  43  16 MISG      30.12F
$$

COZ042>045-048>051-090-091-252000-
...NORTHEAST COLORADO...

CITY           SKY/WX    TMP DP  RH WIND       PRES   REMARKS
GREELEY ARPT   MOSUNNY   91  54  27 E7        30.04F
AKRON          MOSUNNY   91  51  25 N9        30.06S
BURLINGTON     MOSUNNY   92  55  28 N13       30.01S
WRAY             N/A     91  55  29 N9G18     29.99F
STERLING       MOSUNNY   88  63  42 NE6       30.01S
HOLYOKE        SUNNY     90  54  29 N8        30.00S
FORT MORGAN    MOSUNNY   92  52  25 E8        30.05F
$$

COZ086-089-092>099-252000-
...SOUTHEAST COLORADO...

CITY           SKY/WX    TMP DP  RH WIND       PRES   REMARKS
PUEBLO         MOSUNNY   96  50  20 S13G21    30.03F
LA JUNTA       SUNNY     98  50  19 CALM      29.98F
LAMAR          SUNNY     98  51  20 SW6       29.93F
SPRINGFIELD      N/A     97  47  18 CALM      29.99F
$$


USA.gov is the U.S. government's official web portal to all federal, state and local government web resources and services.